| time (UTC) | temp C | wind direction | speed KPH | gust KPH | rain 1hr cm | rain 24hr cm | rain mn cm | humidity % | barometer mb |
| 20260906024517 | 35 | 175 | 9.7 | 16.1 | 0.00 | 0.00 | 0.00 | 24 | 949.4 |
| 20260906023017 | 35 | 143 | 9.7 | 22.5 | 0.00 | 0.00 | 0.00 | 24 | 949.3 |
| 20260906021516 | 35 | 134 | 9.7 | 17.7 | 0.00 | 0.00 | 0.00 | 24 | 949.2 |
| 20260906020015 | 35 | 158 | 14.5 | 24.1 | 0.00 | 0.00 | 0.00 | 24 | 949.2 |
| 20260906014515 | 36 | 133 | 11.3 | 19.3 | 0.00 | 0.00 | 0.00 | 23 | 949.3 |
| 20260906013014 | 36 | 168 | 8.0 | 22.5 | 0.00 | 0.00 | 0.00 | 23 | 949.4 |
| 20260906011513 | 36 | 184 | 14.5 | 25.7 | 0.00 | 0.00 | 0.00 | 23 | 949.4 |
| 20260906010014 | 37 | 176 | 17.7 | 27.4 | 0.00 | 0.00 | 0.00 | 23 | 949.4 |
| 20260906004512 | 37 | 22.5 | 32.2 | 0.00 | 0.00 | 0.00 | 23 | 949.4 | |
| 20260906003010 | 37 | 196 | 6.4 | 32.2 | 0.00 | 0.00 | 0.00 | 22 | 949.4 |
| 20260906001509 | 37 | 158 | 17.7 | 33.8 | 0.00 | 0.00 | 0.00 | 22 | 949.4 |
| 20260906000009 | 38 | 203 | 12.9 | 30.6 | 0.00 | 0.00 | 0.00 | 20 | 949.3 |
| 20260905234508 | 38 | 229 | 12.9 | 33.8 | 0.00 | 0.00 | 0.00 | 19 | 949.2 |
| 20260905233007 | 37 | 219 | 16.1 | 35.4 | 0.00 | 0.00 | 0.00 | 19 | 949.2 |
| 20260905231508 | 38 | 223 | 17.7 | 41.8 | 0.00 | 0.00 | 0.00 | 19 | 949.3 |
| 20260905230005 | 38 | 236 | 17.7 | 29.0 | 0.00 | 0.00 | 0.00 | 18 | 949.4 |
| 20260905224505 | 38 | 212 | 9.7 | 37.0 | 0.00 | 0.00 | 0.00 | 18 | 949.6 |
| 20260905223003 | 38 | 191 | 11.3 | 38.6 | 0.00 | 0.00 | 0.00 | 18 | 949.6 |
| 20260905221503 | 38 | 214 | 14.5 | 33.8 | 0.00 | 0.00 | 0.00 | 17 | 950.0 |
| 20260905220002 | 38 | 200 | 11.3 | 32.2 | 0.00 | 0.00 | 0.00 | 17 | 949.9 |
| 20260905214601 | 38 | 188 | 14.5 | 30.6 | 0.00 | 0.00 | 0.00 | 18 | 950.1 |
| 20260905213059 | 37 | 210 | 20.9 | 32.2 | 0.00 | 0.00 | 0.00 | 18 | 950.3 |
| 20260905211629 | 37 | 205 | 20.9 | 38.6 | 0.00 | 0.00 | 0.00 | 18 | 950.5 |
| 20260905210057 | 37 | 231 | 17.7 | 35.4 | 0.00 | 0.00 | 0.00 | 17 | 950.6 |
| 20260905204558 | 37 | 224 | 11.3 | 30.6 | 0.00 | 0.00 | 0.00 | 16 | 950.8 |
| 20260905203114 | 37 | 204 | 20.9 | 35.4 | 0.00 | 0.00 | 0.00 | 16 | 951.0 |
| 20260905201552 | 36 | 158 | 14.5 | 33.8 | 0.00 | 0.00 | 0.00 | 16 | 951.4 |
| 20260905200056 | 36 | 235 | 11.3 | 35.4 | 0.00 | 0.00 | 0.00 | 16 | 951.6 |
| 20260905194547 | 36 | 195 | 14.5 | 32.2 | 0.00 | 0.00 | 0.00 | 16 | 951.8 |
| 20260905193047 | 35 | 210 | 17.7 | 29.0 | 0.00 | 0.00 | 0.00 | 16 | 951.9 |
| 20260905191546 | 35 | 161 | 11.3 | 30.6 | 0.00 | 0.00 | 0.00 | 16 | 952.0 |
| 20260905190043 | 35 | 17.7 | 25.7 | 0.00 | 0.00 | 0.00 | 16 | 952.0 | |
| 20260905184541 | 35 | 231 | 11.3 | 24.1 | 0.00 | 0.00 | 0.00 | 16 | 952.2 |
| 20260905183038 | 34 | 4.8 | 22.5 | 0.00 | 0.00 | 0.00 | 16 | 952.3 | |
| 20260905181552 | 33 | 212 | 1.6 | 20.9 | 0.00 | 0.00 | 0.00 | 16 | 952.5 |
| 20260905180035 | 33 | 226 | 6.4 | 29.0 | 0.00 | 0.00 | 0.00 | 17 | 952.5 |
| 20260905174541 | 33 | 223 | 3.2 | 22.5 | 0.00 | 0.00 | 0.00 | 17 | 952.4 |
| 20260905173033 | 33 | 214 | 6.4 | 20.9 | 0.00 | 0.00 | 0.00 | 17 | 952.4 |
| 20260905171538 | 32 | 225 | 0.0 | 8.0 | 0.00 | 0.00 | 0.00 | 18 | 952.4 |
| 20260905170027 | 31 | 217 | 0.0 | 9.7 | 0.00 | 0.00 | 0.00 | 18 | 952.5 |
| 20260905164530 | 31 | 207 | 0.0 | 8.0 | 0.00 | 0.00 | 0.00 | 18 | 952.4 |
| 20260905163023 | 30 | 233 | 0.0 | 8.0 | 0.00 | 0.00 | 0.00 | 18 | 952.4 |
| 20260905161523 | 30 | 0.0 | 8.0 | 0.00 | 0.00 | 0.00 | 18 | 952.4 | |
| 20260905160032 | 30 | 241 | 0.0 | 0.0 | 0.00 | 0.00 | 0.00 | 17 | 952.3 |
| 20260905154521 | 29 | 0.0 | 0.0 | 0.00 | 0.00 | 0.00 | 18 | 952.3 | |
| 20260905153022 | 29 | 0.0 | 0.0 | 0.00 | 0.00 | 0.00 | 18 | 952.1 | |
| 20260905151517 | 29 | 241 | 0.0 | 0.0 | 0.00 | 0.00 | 0.00 | 17 | 952.0 |
| 20260905150015 | 30 | 209 | 0.0 | 0.0 | 0.00 | 0.00 | 0.00 | 17 | 952.1 |
| 20260905144514 | 29 | 95 | 0.0 | 0.0 | 0.00 | 0.00 | 0.00 | 17 | 951.9 |
| 20260905143013 | 28 | 92 | 0.0 | 0.0 | 0.00 | 0.00 | 0.00 | 18 | 951.9 |
| 20260905141510 | 27 | 117 | 0.0 | 0.0 | 0.00 | 0.00 | 0.00 | 18 | 951.7 |
| 20260905140009 | 27 | 119 | 0.0 | 0.0 | 0.00 | 0.00 | 0.00 | 18 | 951.4 |
| 20260905134506 | 27 | 119 | 0.0 | 0.0 | 0.00 | 0.00 | 0.00 | 18 | 951.2 |
| 20260905133005 | 26 | 114 | 0.0 | 0.0 | 0.00 | 0.00 | 0.00 | 18 | 950.9 |
| 20260905131606 | 27 | 131 | 0.0 | 0.0 | 0.00 | 0.00 | 0.00 | 18 | 950.6 |
| 20260905130059 | 27 | 120 | 0.0 | 0.0 | 0.00 | 0.00 | 0.00 | 17 | 950.4 |
| 20260905124558 | 27 | 118 | 0.0 | 0.0 | 0.00 | 0.00 | 0.00 | 17 | 950.3 |
| 20260905123055 | 27 | 120 | 0.0 | 0.0 | 0.00 | 0.00 | 0.00 | 17 | 950.2 |
| 20260905121557 | 27 | 115 | 0.0 | 0.0 | 0.00 | 0.00 | 0.00 | 17 | 950.1 |
| 20260905120114 | 27 | 121 | 0.0 | 0.0 | 0.00 | 0.00 | 0.00 | 17 | 950.2 |
| 20260905114555 | 27 | 121 | 0.0 | 0.0 | 0.00 | 0.00 | 0.00 | 17 | 950.2 |
| 20260905113054 | 27 | 125 | 0.0 | 0.0 | 0.00 | 0.00 | 0.00 | 18 | 950.2 |
| 20260905111608 | 27 | 124 | 0.0 | 0.0 | 0.00 | 0.00 | 0.00 | 17 | 950.2 |
| 20260905110055 | 27 | 91 | 0.0 | 0.0 | 0.00 | 0.00 | 0.00 | 16 | 950.1 |
| 20260905104548 | 27 | 122 | 0.0 | 0.0 | 0.00 | 0.00 | 0.00 | 16 | 950.2 |
| 20260905103050 | 27 | 123 | 0.0 | 0.0 | 0.00 | 0.00 | 0.00 | 16 | 950.2 |
| 20260905101544 | 28 | 143 | 0.0 | 0.0 | 0.00 | 0.00 | 0.00 | 16 | 950.1 |
| 20260905100046 | 28 | 152 | 0.0 | 0.0 | 0.00 | 0.00 | 0.00 | 15 | 950.0 |
| 20260905094541 | 28 | 151 | 0.0 | 0.0 | 0.00 | 0.00 | 0.00 | 15 | 950.1 |
| 20260905093039 | 28 | 131 | 0.0 | 0.0 | 0.00 | 0.00 | 0.00 | 15 | 949.9 |
| 20260905091610 | 28 | 141 | 0.0 | 0.0 | 0.00 | 0.00 | 0.00 | 14 | 949.9 |
| 20260905090036 | 28 | 150 | 0.0 | 0.0 | 0.00 | 0.00 | 0.00 | 14 | 949.8 |
| 20260905084534 | 29 | 218 | 0.0 | 0.0 | 0.00 | 0.00 | 0.00 | 14 | 949.9 |
| 20260905083032 | 29 | 107 | 0.0 | 0.0 | 0.00 | 0.00 | 0.00 | 14 | 949.9 |
| 20260905081529 | 29 | 171 | 0.0 | 0.0 | 0.00 | 0.00 | 0.00 | 14 | 949.8 |
| 20260905080036 | 30 | 152 | 0.0 | 0.0 | 0.00 | 0.00 | 0.00 | 13 | 949.8 |
| 20260905074524 | 31 | 219 | 0.0 | 0.0 | 0.00 | 0.00 | 0.00 | 13 | 949.7 |
| 20260905073022 | 31 | 119 | 0.0 | 4.8 | 0.00 | 0.00 | 0.00 | 12 | 949.5 |
| 20260905071522 | 30 | 137 | 0.0 | 0.0 | 0.00 | 0.00 | 0.00 | 13 | 949.5 |
| 20260905070023 | 31 | 153 | 0.0 | 0.0 | 0.00 | 0.00 | 0.00 | 13 | 949.5 |
| 20260905064518 | 31 | 188 | 0.0 | 3.2 | 0.00 | 0.00 | 0.00 | 13 | 949.4 |
| 20260905063015 | 31 | 113 | 0.0 | 1.6 | 0.00 | 0.00 | 0.00 | 12 | 949.4 |
| 20260905061515 | 32 | 122 | 0.0 | 1.6 | 0.00 | 0.00 | 0.00 | 12 | 949.3 |
| 20260905060014 | 32 | 151 | 0.0 | 8.0 | 0.00 | 0.00 | 0.00 | 12 | 949.3 |
| 20260905054517 | 32 | 122 | 0.0 | 9.7 | 0.00 | 0.00 | 0.00 | 12 | 949.2 |
| 20260905053013 | 32 | 139 | 0.0 | 4.8 | 0.00 | 0.00 | 0.00 | 11 | 949.1 |
| 20260905051514 | 32 | 105 | 0.0 | 3.2 | 0.00 | 0.00 | 0.00 | 11 | 949.1 |
| 20260905050012 | 32 | 0.0 | 8.0 | 0.00 | 0.00 | 0.00 | 10 | 949.0 | |
| 20260905044511 | 32 | 3.2 | 17.7 | 0.00 | 0.00 | 0.00 | 10 | 949.0 | |
| 20260905043020 | 33 | 1.6 | 17.7 | 0.00 | 0.00 | 0.00 | 9 | 948.8 | |
| 20260905041509 | 33 | 4.8 | 20.9 | 0.00 | 0.00 | 0.00 | 9 | 948.7 | |
| 20260905040009 | 33 | 1.6 | 16.1 | 0.00 | 0.00 | 0.00 | 8 | 948.5 | |
| 20260905034508 | 33 | 156 | 1.6 | 9.7 | 0.00 | 0.00 | 0.00 | 8 | 948.3 |
| 20260905033007 | 33 | 217 | 0.0 | 1.6 | 0.00 | 0.00 | 0.00 | 8 | 948.1 |
| 20260905031507 | 33 | 137 | 0.0 | 11.3 | 0.00 | 0.00 | 0.00 | 9 | 947.9 |
| 20260905030008 | 34 | 134 | 0.0 | 11.3 | 0.00 | 0.00 | 0.00 | 9 | 947.6 |